Showing default

RAISE 2, 49397

Orbit data source: Space-Track

RAISE 2, 49397 is a payload satellite owned by JAXA (JP) in SSO that was launched on Tue, 09 Nov 2021 UTC via an EPSILON launch vehicle from the Kagoshima Space Center University Of Tokyo (KSCUT). Payload-class satellites include a variety of spacecraft equipped with specific instruments for various scientific and technological missions. These include communications satellites like Starlink; space stations such as the ISS; scientific satellites like the Hubble; Earth observation satellites from companies like Planet Labs, Umbra, and HawkEye 360; GPS; miniature CubeSats for education and research; and military/defense satellites.

Loading next visibility...
Identifier
49397, 2021-102C
Orbit
SSO
Last TLE update
1 day ago
Origin
Manufacturer
JAXA
Mission
Operational Civil Technology
Bus & Motor
RAPIS, Unknown motor
Mass
110 kg wet, 110 kg dry
Launch date (UTC)
2021-11-09 (4 years ago)
Launch vehicle
EPSILON
Launch site
Kagoshima Space Center University Of Tokyo (KSCUT)
Object type
Payload
Rocket body
Debris
Shape & HBR
Box, 1 m
Radar Cross Section
1.120 m², Medium (>0.1 m² and < 1m²)

Expand to show TLE details & history

TLE from 1 day ago
0 RAISE 2
1 49397U 21102C   25132.72964511  .00006434  00000-0  34194-3 0  9997
2 49397  97.3721 171.8609 0008471 236.0407 124.0021 15.15592626192663
Epoch: 2025-05-12T17:30Z
Definitive object data (Epoch: 2025-05-12T17:30:41.337Z)
Latitude
-0.00005°
Longitude
38.45012°
Altitude
525.537 km
Speed
7.599 km/s
True Right ascension
11h 27m 26s
True Declination
0° 00' 00"
Sunlit
Object was in full shadow at TLE epoch
Visualization TLE readout
Latitude
-46.34185°
Longitude
47.15265°
Altitude
536.177 km
Speed
7.594 km/s
Apparent Right ascension
12h 47m 04s
Apparent Declination
-43° 36' 43"
Sunlit
Object is in full shadow
Visualization observer readout
Local Sidereal Time
01:30:47
Azimuth
117.964° SE
Elevation
-81.057°
Doppler factor
1
Orbital elements
Apogee altitude
521.99 km
Perigee altitude
510.31 km
Semi-major axis
6,894.287 km
Eccentricity
0.0008471
Inclination
97.3721°
RAAN
171.8609°
Arg. of periapsis
236.0407°
True anomaly
124.08253°
Mean anomaly
124.0021°
Eccentric anomaly
124.04232°
Mean motion
3.79148 °/min
BSTAR
0.00034194
Orbital period
94.95 mins
Loading maneuver chart data...
Loading SW <> Apogee altitude chart data...
Loading historical data...
Loading historical data...
Loading historical data...
Loading historical data...
Loading historical data...
Loading historical data...
Loading historical data...

RAISE 2 Visibility forecast

Observer location: undefined°, undefined°

Span
Click to sort rows by Start time (UTC) header in descending order
Start Az.
Max El. time (UTC)
Max El. Az.
Max El.
End time (UTC)
End Az.
5 mins2025-05-14 02:55:26.408Z191.321° SSW2025-05-14 02:57:26.408Z245.765° WSW37.855°2025-05-14 03:00:26.408Z333.418° NNW
5 mins2025-05-14 16:02:26.408Z334.514° NNW2025-05-14 16:04:26.408Z280.724° WNW27.386°2025-05-14 16:07:26.408Z225.778° WSW
|